Location: Barcelona
(41.3829°N, 2.1774°E)
Time: 11:25:29
(UTC+00:00)

ISS - Pass Details

Date: 05 May 2025
Orbit: 416 x 419 km, 51.6° (Epoch: 14 May)

Event Time Altitude Azimuth Distance (km) Brightness Sun altitude
Rises 03:22:27 0° 309° (NW) 2,361 -0.1 -14.0°
Reaches altitude 10° 03:24:47 10° 323° (NW) 1,496 -1.0 -13.6°
Maximum altitude 03:27:39 26° 22° (NNE) 874 -1.4 -13.2°
Drops below altitude 10° 03:30:31 10° 81° (E) 1,493 0.1 -12.8°
Sets 03:32:50 0° 95° (E) 2,355 0.9 -12.4°
